This is the latest recevied weather packets stored in our database for station/object LU3GHF-13. If no packets are shown the sender has not sent any weather packets the latest 10 day(s).
| Time | Temp. | Humidity | Pressure | Rain* | Wind** | Luminosity | Snow |
|---|---|---|---|---|---|---|---|
| 1788321773 | 18.33° C | 93% | 1012.9 hPa | - | - | - | - |
| 1788321131 | 17.78° C | 93% | 1013 hPa | - | - | - | - |
| 1788320506 | 18.33° C | 92% | 1013 hPa | - | - | - | - |
| 1788319849 | 18.33° C | 92% | 1013 hPa | - | - | - | - |
| 1788319214 | 18.33° C | 91% | 1013 hPa | - | - | - | - |
| 1788318559 | 18.33° C | 92% | 1013.1 hPa | - | - | - | - |
| 1788317914 | 18.33° C | 92% | 1013.1 hPa | - | - | - | - |
| 1788317299 | 18.33° C | 91% | 1013.1 hPa | - | - | - | - |
| 1788316034 | 18.89° C | 89% | 1013.1 hPa | - | - | - | - |
| 1788315400 | 18.89° C | 89% | 1013.1 hPa | - | - | - | - |
| 1788314773 | 18.89° C | 88% | 1013 hPa | - | - | - | - |
| 1788314157 | 19.44° C | 87% | 1013.1 hPa | - | - | - | - |
| 1788313512 | 19.44° C | 86% | 1013.1 hPa | - | - | - | - |
| 1788312897 | 19.44° C | 85% | 1013 hPa | - | - | - | - |
| 1788312242 | 19.44° C | 85% | 1013.1 hPa | - | - | - | - |
| 1788311611 | 19.44° C | 84% | 1013.1 hPa | - | - | - | - |
| 1788311005 | 20° C | 83% | 1013.1 hPa | - | - | - | - |
| 1788310376 | 19.44° C | 84% | 1013 hPa | - | - | - | - |
| 1788309772 | 19.44° C | 86% | 1012.9 hPa | - | - | - | - |
| 1788309128 | 20° C | 85% | 1012.7 hPa | - | - | - | - |
| 1788308509 | 20° C | 86% | 1012.8 hPa | - | - | - | - |
| 1788307902 | 20° C | 85% | 1012.9 hPa | - | - | - | - |
| 1788307270 | 20° C | 85% | 1012.8 hPa | - | - | - | - |
| 1788306641 | 20° C | 84% | 1012.7 hPa | - | - | - | - |
| 1788305987 | 20° C | 85% | 1012.8 hPa | - | - | - | - |
* Rain since midnight (hover to see other rain measurements)
** Current wind speed in m/s (hover to see current wind gust speed)